Location: Kellogg
(38.0159°N, 90.0546°W)
Time: 13:57:34
(UTC+00:00)

Transit 2A - All Passes

Search period start: 13 September 2024 00:00
Search period end: 23 September 2024 00:00
Orbit: 590 x 961 km, 66.7° (Epoch: 13 September)

Date Brightness Start Highest point End Pass type
(mag) Time Alt. Az. Time Alt. Az. Time Alt. Az.
13 Sep - 00:38:43 10° SSW 00:44:25 70° ESE 00:50:38 10° NNE visible
13 Sep - 02:23:42 10° W 02:28:14 22° NW 02:32:59 10° N visible
13 Sep - 09:27:24 10° NNW 09:33:19 43° NE 09:38:48 10° SE visible
13 Sep - 11:11:04 10° NW 11:16:13 29° WSW 11:21:02 10° SSW visible
14 Sep - 00:03:39 10° S 00:09:08 47° ESE 00:15:03 10° NE daylight
14 Sep - 01:47:23 10° WSW 01:52:32 30° NW 01:57:58 10° N visible
14 Sep - 08:52:14 10° N 08:57:42 31° NE 09:02:49 10° ESE visible
14 Sep - 10:35:15 10° NW 10:41:01 44° WSW 10:46:20 10° S visible
14 Sep - 23:28:53 10° SSE 23:33:55 32° ESE 23:39:16 10° NE daylight
15 Sep - 01:11:21 10° SW 01:16:54 41° NW 01:22:49 10° NNE visible
15 Sep - 08:17:12 10° N 08:22:00 23° NE 08:26:33 10° E visible
15 Sep - 09:59:37 10° NNW 10:05:44 66° WSW 10:11:20 10° SSE visible
15 Sep - 22:54:32 10° SSE 22:58:45 21° ESE 23:03:12 10° ENE daylight
16 Sep - 00:35:35 10° SW 00:41:21 59° WNW 00:47:33 10° NNE visible
16 Sep - 02:23:28 10° WNW 02:25:56 12° NW 02:28:28 10° NNW visible
16 Sep - 07:42:20 10° N 07:46:12 17° NE 07:49:54 10° E visible
16 Sep - 09:24:09 10° NNW 09:30:22 85° ENE 09:36:02 10° SSE visible
16 Sep - 11:10:04 10° WNW 11:12:31 13° W 11:14:54 10° SW visible
16 Sep - 22:20:55 10° SE 22:23:40 14° E 22:26:31 10° ENE daylight
17 Sep - 00:00:03 10° SSW 00:05:52 84° WNW 00:12:11 10° NNE daylight
17 Sep - 01:46:15 10° W 01:50:03 17° NW 01:53:59 10° N visible
17 Sep - 07:07:51 10° NNE 07:10:18 12° NE 07:12:42 10° ENE visible
17 Sep - 08:48:46 10° NNW 08:54:54 59° ENE 09:00:30 10° SE visible
17 Sep - 10:33:12 10° WNW 10:37:26 20° WSW 10:41:25 10° SSW visible
17 Sep - 23:24:44 10° SSW 23:30:29 68° ESE 23:36:42 10° NNE daylight
18 Sep - 01:09:35 10° W 01:14:15 23° NW 01:19:07 10° N visible
18 Sep - 08:13:29 10° NNW 08:19:20 41° NE 08:24:44 10° SE visible
18 Sep - 09:57:05 10° NW 10:02:17 30° WSW 10:07:06 10° SSW visible
18 Sep - 22:49:40 10° S 22:55:10 45° ESE 23:01:05 10° NE daylight
19 Sep - 00:33:18 10° WSW 00:38:32 31° NW 00:44:03 10° N visible
19 Sep - 07:38:19 10° N 07:43:41 30° NE 07:48:41 10° ESE visible
19 Sep - 09:21:16 10° NW 09:27:03 45° WSW 09:32:20 10° S visible
19 Sep - 22:14:56 10° SSE 22:19:56 31° ESE 22:25:16 10° NE daylight
19 Sep - 23:57:16 10° SW 00:02:53 43° NW 00:08:52 10° NNE daylight
20 Sep - 07:03:16 10° N 07:07:56 22° NE 07:12:22 10° E visible
20 Sep - 08:45:38 10° NNW 08:51:43 68° WSW 08:57:16 10° SSE visible
20 Sep - 21:40:35 10° SSE 21:44:45 20° ESE 21:49:08 10° ENE daylight
20 Sep - 23:21:29 10° SW 23:27:19 61° WNW 23:33:34 10° NNE daylight
21 Sep - 01:09:08 10° WNW 01:11:51 13° NW 01:14:37 10° NNW visible
21 Sep - 06:28:25 10° N 06:32:07 16° NE 06:35:39 10° ENE visible
21 Sep - 08:10:08 10° NNW 08:16:20 82° ENE 08:21:56 10° SSE visible
21 Sep - 09:55:52 10° WNW 09:58:30 13° W 10:01:02 10° SW night (unlit)
21 Sep - 21:07:03 10° SE 21:09:39 13° E 21:12:18 10° ENE daylight
21 Sep - 22:45:56 10° SSW 22:51:50 87° WNW 22:58:10 10° NNE daylight
22 Sep - 00:32:00 10° W 00:35:57 17° NW 00:40:03 10° N visible
22 Sep - 05:54:03 10° NNE 05:56:11 12° NE 05:58:17 10° ENE visible
22 Sep - 07:34:45 10° NNW 07:40:50 57° ENE 07:46:21 10° SE visible
22 Sep - 09:19:06 10° WNW 09:23:23 21° WSW 09:27:25 10° SSW night (unlit)
22 Sep - 22:10:38 10° SSW 22:16:25 65° ESE 22:22:39 10° NE daylight
